Simultaneous Nadir Overpasses (SNOs) Predictions

Prediction of SNOs between AQUA and NPP Satellite Orbit:

Table of predicted SNOs for the next 14.0 days since TLE Epoch: 12/5/2015
Index Date (AQUA) Time (AQUA) Lat,Lon (AQUA) SZA (AQUA ) Date (NPP) Time (NPP) Lat,Lon (NPP) SZA (NPP ) Distance(km) Time Diff (sec)
1 12/05/2015 12:27:08 73.21,-134.52 121.30 12/05/2015 12:26:36 73.21,-134.53 121.33 0.13 32
2 12/05/2015 13:16:06 -74.75, 36.61 60.23 12/05/2015 13:16:51 -74.74, 36.55 60.26 1.90 45
3 12/08/2015 04:43:24 73.90, -17.16 120.99 12/08/2015 04:43:16 73.90, -17.16 121.00 0.14 8
4 12/08/2015 05:32:26 -75.22, 153.72 60.35 12/08/2015 05:33:35 -75.22, 153.66 60.40 1.82 69
5 12/10/2015 20:10:48 -72.86, -71.11 57.66 12/10/2015 20:09:47 -72.86, -71.04 57.62 2.21 61
6 12/10/2015 20:59:39 74.62, 100.42 120.59 12/10/2015 20:59:55 74.63, 100.46 120.56 1.33 16
7 12/13/2015 12:27:12 -73.11, 45.27 57.63 12/13/2015 12:26:36 -73.10, 45.23 57.58 1.37 36
8 12/13/2015 13:16:04 74.81,-143.23 120.67 12/13/2015 13:16:45 74.81,-143.28 120.65 1.60 41
9 12/16/2015 04:43:19 -74.17, 163.45 58.46 12/16/2015 04:43:07 -74.18, 163.51 58.46 1.80 12
10 12/16/2015 05:32:14 75.69, -24.96 119.99 12/16/2015 05:33:19 75.70, -24.88 119.90 2.47 65
11 12/18/2015 20:10:50 72.54, 108.32 123.33 12/18/2015 20:09:47 72.54, 108.29 123.40 0.87 63
12 12/18/2015 20:59:38 -74.64, -79.54 58.76 12/18/2015 20:59:51 -74.64, -79.51 58.78 0.88 13




NCC Satellite Simultaneous Nadir Overpasses (SNOs) Prediction Service
